Weather History for KLAF - October, 2013

Change the Weather History Date:

Saturday, October 19, 2013

  Actual Average Record
Temperature  
Mean Temperature 47 °F 53 °F  
Max Temperature 54 °F 64 °F 82 °F (1971)
Min Temperature 40 °F 43 °F 24 °F (1992)
Degree Days  
Heating Degree Days 18 12  
Month to date heating degree days 134 180  
Since 1 July heating degree days 213 265  
Cooling Degree Days 0 0  
Month to date cooling degree days 31 13  
Year to date cooling degree days 884 978  
Moisture  
Dew Point 38 °F    
Average Humidity 70    
Maximum Humidity 96    
Minimum Humidity 44    
Precipitation  
Precipitation 0.21 in 0.09 in 1.26 in (2011)
Month to date precipitation 2.09 1.78  
Year to date precipitation 33.65 29.99  
Sea Level Pressure  
Sea Level Pressure 29.91 in    
Wind  
Wind Speed 7 mph (WSW)    
Max Wind Speed 20 mph    
Max Gust Speed 26 mph    
Visibility 9 miles    
Events Rain    
T = Trace of Precipitation, MM = Missing Value Source: NWS Daily Summary

Daily Weather History Graph

Daily Weather History Graph

Search for Another Location

Airport or City:

Trip Planner

Search our weather history database for the weather conditions in past years. The results will help you decide how hot, cold, wet, or windy it might be!

Date:

Astronomy

Oct. 19, 2013 Rise Set
Actual Time 8:03 AM EDT 7:01 PM EDT
Civil Twilight 7:35 AM EDT 7:29 PM EDT
Nautical Twilight 7:03 AM EDT 8:00 PM EDT
Astronomical Twilight 6:32 AM EDT 8:32 PM EDT
Moon 7:28 PM EDT (10/19) 8:40 AM EDT (10/19)
Length of Visible Light 11h 53m
Length of Day
10h 58m
Waxing Gibbous, 99% of the Moon is Illuminated
Oct 19
Waxing Gibbous
Oct 26
Last Quarter
Nov 3
New
Nov 10
First Quarter
Nov 17
Full

Hourly Weather History & Observations

Time (EDT) Temp. Windchill Dew Point Humidity Pressure Visibility Wind Dir Wind Speed Gust Speed Precip Events Conditions
12:54 AM 41.0 °F - 39.9 °F 96% 29.97 in 9.0 mi Calm Calm - N/A   Partly Cloudy
1:54 AM 41.0 °F - 39.9 °F 96% 29.96 in 9.0 mi Calm Calm - N/A   Overcast
2:54 AM 42.1 °F - 41.0 °F 96% 29.94 in 10.0 mi Calm Calm - N/A   Overcast
3:54 AM 43.0 °F - 41.0 °F 93% 29.93 in 9.0 mi Calm Calm - 0.00 in Rain Light Rain
4:54 AM 43.0 °F 41.3 °F 41.0 °F 93% 29.92 in 6.0 mi West 3.5 mph - 0.00 in Rain Light Rain
5:15 AM 42.8 °F 41.1 °F 41.0 °F 93% 29.92 in 6.0 mi West 3.5 mph - 0.00 in Rain Light Rain
5:54 AM 42.1 °F 40.2 °F 41.0 °F 96% 29.91 in 6.0 mi West 3.5 mph - 0.00 in Rain Light Rain
6:36 AM 42.8 °F 40.1 °F 41.0 °F 93% 29.91 in 5.0 mi West 4.6 mph - 0.01 in Rain Light Rain
6:54 AM 42.1 °F 39.2 °F 41.0 °F 96% 29.92 in 5.0 mi West 4.6 mph - 0.02 in Rain Light Rain
7:39 AM 41.0 °F 36.4 °F 39.2 °F 93% 29.91 in 10.0 mi WNW 6.9 mph - 0.04 in Rain Light Rain
7:54 AM 41.0 °F 37.1 °F 39.0 °F 93% 29.92 in 9.0 mi West 5.8 mph - 0.05 in Rain Light Rain
8:18 AM 39.2 °F 35.9 °F 39.2 °F 100% 29.91 in 8.0 mi West 4.6 mph - 0.01 in Rain Light Rain
8:54 AM 41.0 °F 39.0 °F 39.0 °F 93% 29.93 in 10.0 mi West 3.5 mph - 0.03 in Rain Light Rain
9:07 AM 41.0 °F 38.0 °F 39.2 °F 93% 29.92 in 10.0 mi West 4.6 mph - 0.01 in   Overcast
9:39 AM 41.0 °F 37.1 °F 39.2 °F 93% 29.92 in 10.0 mi West 5.8 mph - 0.04 in Rain Light Rain
9:54 AM 41.0 °F 37.1 °F 39.0 °F 93% 29.93 in 10.0 mi WSW 5.8 mph - 0.05 in   Overcast
10:10 AM 41.0 °F 39.0 °F 39.2 °F 93% 29.92 in 10.0 mi WSW 3.5 mph - N/A   Overcast
10:54 AM 42.1 °F 38.4 °F 39.9 °F 92% 29.93 in 10.0 mi WSW 5.8 mph - 0.03 in   Overcast
11:15 AM 42.8 °F 39.3 °F 41.0 °F 93% 29.91 in 10.0 mi WSW 5.8 mph - 0.01 in   Overcast
11:41 AM 44.6 °F 41.4 °F 41.0 °F 87% 29.91 in 10.0 mi WSW 5.8 mph - 0.02 in   Overcast
11:54 AM 45.0 °F 40.1 °F 41.0 °F 86% 29.91 in 10.0 mi WSW 9.2 mph - 0.02 in   Mostly Cloudy
12:13 PM 46.4 °F 41.5 °F 41.0 °F 81% 29.90 in 10.0 mi WSW 10.4 mph - 0.01 in   Mostly Cloudy
12:54 PM 46.9 °F - 39.0 °F 74% 29.91 in 10.0 mi West 11.5 mph - 0.01 in   Mostly Cloudy
1:52 PM 50.0 °F - 37.4 °F 62% 29.88 in 10.0 mi West 16.1 mph 23.0 mph N/A   Mostly Cloudy
1:54 PM 51.1 °F - 37.9 °F 61% 29.89 in 10.0 mi West 11.5 mph 21.9 mph N/A   Mostly Cloudy
2:54 PM 51.1 °F - 34.0 °F 52% 29.87 in 10.0 mi West 15.0 mph 24.2 mph N/A   Mostly Cloudy
3:54 PM 52.0 °F - 33.1 °F 49% 29.87 in 10.0 mi WSW 12.7 mph 19.6 mph N/A   Overcast
4:54 PM 52.0 °F - 32.0 °F 47% 29.87 in 10.0 mi West 12.7 mph - N/A   Mostly Cloudy
5:54 PM 52.0 °F - 30.9 °F 45% 29.87 in 10.0 mi West 13.8 mph 20.7 mph N/A   Scattered Clouds
6:54 PM 50.0 °F - 32.0 °F 50% 29.88 in 10.0 mi WSW 6.9 mph 17.3 mph N/A   Clear
7:54 PM 46.0 °F 43.1 °F 33.1 °F 61% 29.90 in 10.0 mi SSW 5.8 mph - N/A   Clear
8:54 PM 45.0 °F 43.5 °F 34.0 °F 65% 29.92 in 10.0 mi WSW 3.5 mph - N/A   Mostly Cloudy
9:54 PM 45.0 °F 42.6 °F 34.0 °F 65% 29.93 in 10.0 mi SW 4.6 mph - N/A   Overcast
10:54 PM 44.1 °F 42.5 °F 34.0 °F 68% 29.94 in 10.0 mi SSW 3.5 mph - N/A   Overcast
11:54 PM 45.0 °F 41.2 °F 35.1 °F 68% 29.94 in 10.0 mi SW 6.9 mph - N/A   Overcast